Voltar ao catálogo

KUIPER-00050

AtivoComunicaçõesLEO
NORAD 64510·PAYLOAD·🇺🇸 United States

Lançado Jun 23, 2025 de Cape Canaveral Space Force Station

Loading…

Próximas Passagens (próximas 24 horas)

TLE

AtualizadoSource: CelesTrak SupGP

Época: Sep 15, 2026, 00:20 UTC

1 64510C 25134L   26258.01423611  .00005990  00000+0  78420-3 0  2586
2 64510  51.8985  93.3626 0000748 111.9896 100.2653 14.79920411    13

Acompanhe KUIPER-00050 em tempo real com AllMySat

Download on the App Store